Content
SEND FEEDBACK

Daily
Averages
Monthly
Summary
United States of America

NEW YORK - CENTRAL PARK, NEW YORK


Home > North America > United States > New York
Elevation: 14 feet     Latitude: 40 47N     Longitude: 073 58W

WEATHER
 
SELECT A DAY
Number of Records: 147,926;   Date Range: 11/1/95 - 7/7/14
 
SHARE

PRINT THIS DATA

[ ← Previous Day ]
WEATHER ALMANAC - JANUARY 23, 2013
[ Next Day → ]
[ °C ]   °F
Weather ElementAverageHighLow
Temperature14.6 °F19 °F (2:51 pm)10.9 °F (4:51 am)
Dewpoint-4.7 °F (10:51 pm)-7.1 °F (1:51 am)
Humidity42.7 %51 % (7:51 am)31 % (3:51 pm)
Barometer30.20 in30.25 in (9:51 am)30.16 in (1:51 pm)
Wind Speed7.7 mph12.7 mph (11:51 am)
Wind Gust20.7 mph (4:51 am)
Weather ElementAverage
Visibility10 mi
Wind DirectionSSW (203 °)

Weather ElementTotal
Precipitation---
Heating Degree Days50.1 (Base 65)
Averaged from 23 records on January 23, 2013
WEATHER CONDITIONS BREAKOUT
WIND DIRECTION BREAKOUT
WEATHER BY HOUR - JANUARY 23, 2013
[ °C ]   °F
Local TimeTemperatureDewpointHumidityBarometerVisibilityWind DirectionWind SpeedGust SpeedPrecipitationEventsConditions
1:51 AM12.9 °F-7.1 °F41 %30.20 in10.0 miWNW (300°)8.1 mph17.3 mphClear
2:51 AM12.0 °F-7.1 °F42 %30.22 in10.0 miWest (280°)10.4 mph18.4 mphClear
3:51 AM12.0 °F-6.0 °F44 %30.21 in10.0 miVariable6.9 mphClear
4:51 AM10.9 °F-6.0 °F47 %30.21 in10.0 miWest (280°)9.2 mph20.7 mphClear
5:51 AM10.9 °F-5.1 °F49 %30.21 in10.0 miWNW (290°)8.1 mph18.4 mphClear
6:51 AM10.9 °F-5.1 °F49 %30.22 in10.0 miWNW (290°)8.1 mph19.6 mphClear
7:51 AM10.9 °F-4.0 °F51 %30.23 in10.0 miWNW (300°)9.2 mph17.3 mphClear
8:51 AM12.0 °F-2.9 °F51 %30.24 in10.0 miVariable4.6 mphClear
9:51 AM12.9 °F-4.0 °F47 %30.25 in10.0 miWNW (290°)8.1 mph19.6 mphPartly Cloudy
10:51 AM15.1 °F-5.1 °F41 %30.25 in10.0 miNW (310°)10.4 mph18.4 mphPartly Cloudy
11:51 AM16.0 °F-6.0 °F38 %30.20 in10.0 miWest (280°)12.7 mph18.4 mphMostly Cloudy
12:51 PM16.0 °F-7.1 °F36 %30.18 in10.0 miWNW (290°)9.2 mph18.4 mphOvercast
1:51 PM18.0 °F-6.0 °F35 %30.16 in10.0 miNW (310°)8.1 mphOvercast
2:51 PM19.0 °F-6.0 °F33 %30.16 in10.0 miVariable6.9 mphOvercast
3:51 PM19.0 °F-7.1 °F31 %30.17 in10.0 miNW (310°)9.2 mphMostly Cloudy
4:51 PM18.0 °F-6.0 °F35 %30.17 in10.0 miWest (280°)6.9 mph19.6 mphMostly Cloudy
5:51 PM17.1 °F-5.1 °F37 %30.19 in10.0 miVariable4.6 mph18.4 mphPartly Cloudy
6:51 PM16.0 °F-5.1 °F39 %30.20 in10.0 miWNW (290°)6.9 mphClear
7:51 PM16.0 °F-2.9 °F43 %30.20 in10.0 miVariable5.8 mphClear
8:51 PM15.1 °F-2.0 °F47 %30.19 in10.0 miVariable5.8 mphClear
9:51 PM15.1 °F-0.9 °F49 %30.20 in10.0 miNorthClear
10:51 PM15.1 °F0.0 °F51 %30.20 in10.0 miWest (270°)5.8 mphClear
11:51 PM15.1 °F-2.0 °F47 %30.18 in10.0 miWNW (300°)4.6 mphScattered Clouds
Hourly data recorded from KNYC, located miles away from New York - Central Park, New York







STORIES FROM OUR PARTNERS